Temperature
14 14 14 14 14 14 14 14 13 13 13 13 13 13 13 13 13 13 13 13 13 13 13 13 13 13 13 13 13 13 13 13 13 12 12 12 11 11 11 11 11 11 11
14 14 14 14 13 13 13 13 13 13 13 13 13 13 13 13 13 13 13 13 13 13 13 13 13 13 13 13 13 13 13 12 12 12 12 11 11 11 11 11 10 10 10
14 14 14 13 13 13 13 13 13 13 13 13 13 13 13 13 13 13 13 13 13 13 13 13 13 13 13 13 13 12 12 12 12 12 12 12 11 11 11 11 10 10 10
14 13 13 13 13 13 13 13 13 13 13 13 13 13 13 13 13 13 13 13 13 13 13 13 13 13 13 12 12 12 12 12 12 12 12 11 11 11 11 11 10 10 10
13 13 13 13 13 13 13 13 13 13 13 13 13 13 13 13 13 13 12 13 13 13 13 13 13 13 13 12 12 12 12 12 12 12 11 11 11 11 11 10 10 10 10
12 12 12 12 12 12 12 13 13 12 12 12 12 12 12 12 12 13 12 12 12 12 12 13 13 13 13 12 12 12 12 12 12 12 12 12 12 11 11 11 10 10 10
12 12 12 12 12 12 12 12 12 12 12 12 12 12 12 12 12 12 12 12 12 12 12 12 12 12 12 12 12 12 12 12 12 12 12 12 12 12 11 11 11 10 10
12 12 12 12 12 12 12 12 12 12 12 12 11 11 11 11 12 12 12 12 12 12 12 12 12 12 12 12 12 12 12 12 12 12 12 12 12 11 11 11 11 10 10
11 11 11 11 11 11 11 11 11 11 11 11 11 11 11 11 11 11 11 11 11 11 11 11 11 11 12 12 12 11 11 11 12 12 12 12 12 11 11 11 10 10 9
11 11 11 11 11 11 11 11 11 11 11 11 11 11 11 11 11 11 11 11 11 11 11 11 11 11 11 11 11 11 11 11 11 11 11 11 11 11 11 11 11 10 10
10 10 10 10 10 10 10 10 10 10 10 10 10 10 10 10 11 11 10 10 10 10 10 10 11 11 11 11 11 11 11 11 11 11 11 11 11 11 11 11 10 10 10
10 10 10 10 10 10 10 10 10 10 10 10 10 10 10 10 10 10 10 10 10 10 10 10 10 10 11 11 11 11 11 11 11 10 10 10 11 11 11 11 10 10 10
9 9 9 9 9 9 9 9 9 9 9 9 9 9 9 9 9 10 10 10 9 9 9 9 10 10 10 10 10 10 10 10 10 10 10 10 10 11 10 10 10 10 10
8 9 9 9 9 9 9 9 9 9 9 9 9 9 9 9 9 9 9 9 9 9 9 9 9 9 10 10 10 10 10 9 9 10 10 10 10 10 10 10 10 10 9
8 8 8 8 8 8 8 8 8 8 8 8 8 8 8 8 9 9 9 9 9 9 8 8 8 9 9 9 9 9 9 9 9 9 9 9 9 10 10 10 9 9 9
8 8 8 8 8 8 8 8 8 8 8 8 8 8 8 8 8 8 8 8 8 8 8 8 8 8 8 8 8 8 8 8 8 9 9 9 9 9 9 9 9 9 9
7 7 7 7 7 7 7 7 7 8 8 8 8 8 8 8 8 8 8 8 8 7 7 7 8 8 8 8 8 8 8 8 8 8 8 8 9 9 9 9 9 8 8
7 7 7 7 7 7 7 7 7 7 7 7 7 7 7 7 7 7 7 7 7 7 7 7 7 7 7 8 8 8 8 8 8 8 8 8 8 8 8 8 8 8 8
7 7 7 7 7 7 7 6 6 6 6 6 7 7 7 7 7 7 7 6 6 6 7 7 7 7 7 7 7 7 7 7 7 7 7 8 8 8 8 8 8 8 8
7 7 7 6 6 6 6 6 6 6 6 6 6 6 6 6 6 6 7 6 6 6 6 6 6 6 7 7 7 7 7 7 7 7 7 7 7 7 7 7 7 7 7
6 6 6 6 6 6 6 6 6 6 6 6 6 6 6 6 6 6 6 6 6 6 6 6 6 6 6 7 7 7 7 7 7 7 7 7 7 7 7 6 6 6 6
6 6 6 6 6 5 5 5 5 5 5 5 5 5 6 6 6 6 6 6 6 6 6 6 6 6 6 6 6 6 6 6 6 6 6 6 7 7 6 6 6 6 6
5 5 5 5 5 5 5 5 5 5 5 5 5 5 5 5 5 5 6 6 6 6 6 6 6 6 6 6 6 6 6 6 6 6 6 6 6 6 6 6 6 6 6
5 5 5 5 5 5 5 5 5 4 5 5 5 5 5 5 5 5 5 5 5 6 6 6 6 6 6 6 6 6 6 6 6 6 6 5 6 6 6 6 6 6 5
5 5 5 4 4 4 4 4 4 4 4 4 4 4 4 4 5 5 5 5 5 5 5 5 5 6 6 6 6 6 6 6 6 5 5 5 5 5 5 5 5 5 5
5 4 4 4 4 4 4 4 4 4 4 4 4 4 4 4 4 4 4 4 5 5 5 5 5 5 5 5 5 6 6 6 5 5 5 5 5 5 5 5 5 5 5
Wind_Speed
2 3 3 3 3 4 4 4 4 4 4 4 4 4 4 4 4 4 4 4 5 5 5 5 5 4 4 4 5 4 4 3 3 3 3 5 6 5 5 4 4 4 6
2 2 3 2 3 3 4 4 4 4 4 4 5 5 4 4 5 5 5 5 5 5 5 5 5 5 5 5 5 5 5 4 4 5 5 5 6 5 5 4 4 3 4
2 3 3 3 3 3 4 4 4 4 4 5 5 5 5 5 5 6 6 5 6 5 5 5 6 6 6 5 6 5 5 5 4 5 5 5 5 5 5 4 4 3 3
2 3 3 3 3 3 3 4 4 4 5 5 5 6 6 6 6 6 6 6 5 5 5 6 6 6 7 6 6 6 6 6 5 6 6 6 5 6 6 5 4 4 3
3 3 3 3 3 3 3 3 4 4 5 5 5 6 6 6 5 5 6 6 6 6 6 6 5 5 4 5 5 6 7 6 6 6 7 6 6 7 7 6 5 4 4
3 3 3 4 4 4 4 4 4 4 4 4 5 5 5 5 3 4 6 6 7 7 6 5 4 5 6 7 6 6 7 8 8 7 7 8 9 9 7 7 6 5 4
3 3 3 3 4 4 4 4 4 4 4 5 5 5 5 4 3 5 7 7 7 7 7 6 4 5 6 7 8 9 8 8 8 8 9 9 9 9 9 9 8 7 5
3 3 3 4 4 4 4 5 5 5 5 5 5 5 5 4 3 4 6 8 8 8 7 7 6 6 6 6 7 9 9 10 10 9 9 8 8 8 9 8 7 6 4
4 4 4 5 5 5 5 5 5 5 5 6 5 6 6 6 5 5 6 6 7 8 8 7 7 7 4 6 7 8 8 8 8 8 6 4 2 6 8 7 7 7 5
4 5 5 5 5 5 6 6 5 5 6 6 6 6 7 7 5 6 8 6 6 6 6 7 6 6 5 7 8 8 9 8 7 7 7 6 7 9 12 10 8 8 6
5 5 5 5 6 6 5 5 5 5 5 6 6 6 7 7 5 6 8 7 6 6 6 6 5 4 5 7 9 8 7 6 7 8 7 7 7 7 9 10 9 7 7
5 5 5 6 5 5 5 5 6 6 6 6 6 6 6 5 5 6 8 8 7 7 6 6 4 4 6 7 7 6 5 5 6 6 7 7 7 7 7 9 9 9 7
5 5 5 6 5 5 6 6 5 6 6 6 6 6 6 5 5 6 8 8 8 7 6 4 4 4 5 6 6 7 6 6 6 6 7 7 7 7 7 7 7 7 6
6 6 5 5 5 5 5 5 5 6 6 7 7 7 6 6 5 5 5 6 7 7 6 4 5 6 5 5 5 6 6 6 7 7 7 6 6 5 6 6 6 6 5
6 6 6 5 6 5 5 5 6 6 6 7 7 7 7 7 6 6 5 6 6 6 6 5 5 5 5 5 6 6 6 6 6 6 6 6 6 6 6 6 6 6 7
6 6 5 5 5 5 5 5 5 6 6 7 8 8 7 7 6 6 6 6 5 6 6 6 6 6 6 6 6 7 6 6 6 6 6 6 7 7 7 6 6 7 7
6 6 6 6 6 6 6 6 6 5 5 6 7 8 8 7 6 7 7 7 7 8 7 7 7 7 7 7 7 7 7 7 6 6 6 7 7 7 7 7 8 8 8
7 7 6 6 6 7 7 7 6 6 6 5 6 7 8 7 7 8 7 6 5 7 7 8 8 7 7 7 7 7 7 6 6 6 6 6 7 7 8 8 8 9 8
7 6 6 6 6 7 6 7 6 7 7 6 5 5 6 6 7 7 7 6 7 7 7 7 7 7 7 7 7 7 7 7 7 7 7 7 7 8 8 8 8 10 9
6 7 8 7 6 6 6 6 6 6 7 6 6 6 4 4 5 5 6 7 7 7 7 8 7 7 7 7 7 6 7 7 7 7 7 7 7 7 8 9 8 8 9
6 6 8 7 6 6 7 7 6 7 7 7 7 6 5 6 6 7 7 7 8 8 8 8 7 7 7 7 7 7 8 7 7 7 7 7 7 7 7 7 8 8 8
6 6 6 6 6 6 7 7 7 7 7 8 7 7 7 7 7 7 8 8 8 8 8 8 8 7 7 8 8 8 8 8 7 7 7 7 7 7 7 7 7 8 8
6 6 6 6 6 7 7 7 6 7 7 7 7 7 7 7 7 7 8 8 8 8 8 8 8 8 7 8 8 8 8 8 8 7 7 7 7 7 7 8 8 8 9
6 6 6 6 6 6 6 6 6 7 7 7 7 7 7 7 7 7 7 7 7 7 7 7 8 10 11 9 8 9 9 8 8 8 9 9 8 8 8 8 9 9 9
5 6 6 6 6 6 6 6 7 7 7 7 6 6 6 6 7 7 6 6 7 7 8 8 8 9 11 12 10 10 9 9 9 8 8 8 10 10 9 9 8 8 8
5 5 5 5 5 6 6 6 6 6 6 6 6 6 6 6 6 6 6 6 6 6 7 7 8 9 10 10 11 11 10 10 10 10 8 8 9 9 9 8 10 9 9
Wind_Direction
243 237 233 232 235 232 233 235 238 237 231 232 239 243 234 227 219 216 227 223 228 219 208 211 214 210 201 200 204 210 213 207 194 168 153 155 164 158 152 149 142 140 116
251 248 243 241 238 240 238 240 242 242 238 235 237 239 235 232 227 221 221 224 229 230 221 215 215 207 206 206 206 209 204 203 196 179 165 170 175 168 162 162 157 147 127
257 250 249 247 246 248 244 242 243 243 241 237 236 237 236 235 230 227 226 229 228 227 228 226 222 211 208 202 206 208 203 199 194 186 174 166 176 174 169 173 173 164 150
260 254 250 254 257 255 255 250 248 242 242 243 240 237 238 238 234 228 228 229 227 227 229 231 227 221 213 204 204 206 201 195 194 192 180 176 178 182 186 186 183 182 185
261 257 258 264 267 266 260 258 255 251 247 245 245 240 237 240 239 237 231 230 229 231 230 230 230 228 229 215 214 207 201 199 198 197 192 184 185 187 197 197 195 187 188
267 265 267 268 269 268 269 265 256 253 252 249 248 247 243 239 232 243 249 236 232 231 231 233 230 221 211 211 222 226 220 209 205 205 204 204 202 199 196 198 196 194 198
274 277 277 278 277 271 271 268 257 254 255 253 252 249 249 244 207 223 239 244 239 239 236 232 234 231 216 217 208 211 223 232 229 223 218 217 210 200 195 199 203 208 210
275 282 285 280 278 274 266 264 262 257 253 253 253 250 248 244 217 227 239 237 239 239 238 235 232 234 225 225 218 215 219 220 222 228 231 228 218 202 199 203 202 204 202
274 280 281 281 278 275 268 265 264 263 259 255 253 253 251 246 219 223 238 237 236 237 239 239 236 233 212 221 226 221 219 220 217 229 253 255 206 188 191 192 191 196 206
283 285 286 281 275 271 271 270 265 260 258 256 252 251 251 252 226 218 234 236 237 239 240 240 234 240 214 216 225 225 223 220 211 208 220 220 207 192 193 202 198 206 214
292 293 290 288 282 275 272 270 266 262 258 255 252 249 248 248 226 218 230 237 239 243 241 239 233 211 224 227 234 230 231 231 219 212 211 209 201 197 196 206 209 213 220
292 288 287 286 286 279 268 266 265 262 257 254 253 252 250 246 241 229 229 242 255 246 244 241 232 207 222 228 231 227 218 225 222 215 209 209 204 202 200 201 208 213 225
287 285 284 282 284 281 270 263 260 258 257 254 251 250 249 246 238 225 224 229 240 246 247 245 232 209 218 226 222 210 207 215 217 217 213 214 210 207 198 195 204 209 217
284 285 286 288 289 288 281 269 262 257 256 255 251 250 250 245 241 234 231 227 224 235 241 221 209 212 230 240 218 213 221 219 220 224 220 216 205 199 198 195 196 195 206
282 284 284 284 284 286 283 278 267 265 263 262 258 255 250 246 244 243 237 232 228 229 226 223 223 220 222 226 226 225 222 220 222 227 223 216 205 200 201 197 199 201 211
284 286 284 282 281 278 280 281 273 265 276 273 272 268 259 259 262 237 238 238 229 212 217 226 225 226 226 226 228 226 221 220 222 222 224 220 210 206 204 198 199 206 213
279 282 282 279 277 274 270 268 273 271 258 256 256 258 260 262 249 230 226 224 219 204 220 228 229 230 231 231 233 230 226 224 221 222 224 223 215 211 207 203 204 209 216
281 280 280 275 273 272 268 266 266 268 271 272 253 237 240 243 236 228 221 216 224 220 230 233 233 234 234 232 233 235 230 224 221 221 223 224 215 214 213 211 209 211 215
283 281 281 281 277 273 268 264 264 263 262 265 270 251 226 226 221 216 207 224 229 229 232 236 236 236 236 235 235 235 229 225 223 221 223 223 218 217 218 218 217 213 215
282 284 285 280 276 273 269 265 261 258 256 257 257 258 244 232 233 223 221 229 233 235 235 236 237 238 238 237 234 234 231 228 227 227 228 223 219 222 222 221 220 217 218
280 278 279 277 273 271 268 265 262 260 257 256 255 253 240 237 235 231 229 231 232 236 237 238 238 237 237 237 233 230 231 229 228 228 230 226 218 223 226 226 224 221 221
279 277 275 275 276 273 270 265 262 259 258 258 258 249 229 237 241 239 235 235 236 237 236 236 238 238 237 237 231 229 230 229 228 228 230 231 224 224 226 226 226 222 220
279 279 276 274 276 275 270 266 262 260 260 260 260 255 242 241 244 242 239 238 238 238 237 235 236 238 239 239 236 233 233 232 229 227 228 232 228 224 225 225 227 228 223
280 279 277 275 274 272 269 268 265 262 261 259 258 255 250 245 246 247 246 243 239 237 236 236 237 237 236 236 238 237 238 236 233 230 228 230 230 226 225 226 227 229 229
282 280 279 277 275 272 271 269 268 264 262 261 258 257 256 253 249 248 247 245 244 243 242 243 243 240 239 237 236 239 234 228 229 233 233 234 231 226 226 226 225 229 231
281 281 280 279 279 278 276 274 271 269 267 264 261 258 256 254 251 248 247 245 244 245 246 246 247 247 246 243 240 238 229 223 224 228 234 233 231 228 225 227 228 228 231
Height
1538 1539 1539 1539 1540 1540 1540 1541 1541 1542 1542 1542 1542 1543 1543 1544 1544 1544 1545 1545 1546 1546 1547 1547 1548 1548 1549 1550 1551 1552 1553 1554 1554 1555 1555 1556 1556 1557 1557 1558 1558 1557 1556
1536 1537 1537 1537 1537 1537 1538 1538 1538 1539 1539 1540 1540 1541 1541 1541 1541 1542 1542 1543 1544 1544 1545 1545 1546 1546 1547 1548 1548 1550 1550 1552 1553 1553 1554 1554 1555 1556 1556 1556 1557 1557 1556
1534 1534 1535 1535 1535 1535 1535 1535 1535 1536 1536 1537 1537 1538 1538 1538 1539 1539 1540 1541 1541 1542 1542 1543 1544 1544 1544 1545 1546 1547 1548 1549 1550 1551 1552 1552 1553 1554 1554 1555 1555 1555 1555
1531 1531 1532 1532 1532 1532 1532 1532 1532 1533 1533 1534 1534 1535 1535 1535 1536 1537 1537 1538 1538 1539 1540 1540 1541 1541 1542 1543 1543 1544 1545 1546 1547 1549 1549 1550 1551 1551 1552 1553 1553 1553 1553
1528 1528 1528 1529 1529 1529 1529 1529 1529 1529 1530 1530 1531 1531 1531 1532 1533 1533 1534 1534 1535 1536 1536 1537 1538 1538 1539 1540 1541 1542 1543 1544 1544 1546 1547 1547 1548 1548 1549 1550 1551 1551 1551
1525 1525 1525 1525 1526 1525 1526 1526 1526 1526 1526 1527 1527 1527 1528 1528 1529 1529 1530 1531 1532 1532 1533 1534 1534 1534 1535 1536 1537 1538 1539 1540 1541 1542 1543 1544 1545 1546 1546 1547 1548 1549 1549
1522 1522 1522 1522 1522 1522 1522 1522 1522 1522 1523 1523 1523 1523 1524 1524 1524 1525 1526 1527 1528 1529 1529 1530 1530 1531 1531 1532 1533 1534 1535 1536 1538 1539 1540 1541 1542 1542 1543 1544 1545 1546 1547
1519 1519 1519 1519 1519 1519 1519 1519 1519 1519 1519 1519 1519 1519 1519 1520 1520 1521 1522 1522 1523 1524 1525 1526 1526 1527 1527 1528 1529 1530 1531 1532 1533 1535 1536 1538 1539 1539 1540 1541 1542 1543 1544
1516 1515 1515 1515 1515 1515 1515 1515 1515 1515 1515 1515 1515 1515 1515 1515 1516 1516 1517 1518 1519 1519 1520 1521 1522 1522 1523 1524 1525 1526 1526 1527 1528 1530 1531 1532 1534 1535 1536 1537 1538 1539 1540
1512 1512 1512 1511 1511 1511 1511 1511 1511 1510 1510 1510 1510 1510 1511 1511 1511 1512 1513 1513 1514 1515 1516 1516 1517 1517 1518 1519 1520 1521 1522 1523 1524 1525 1526 1528 1529 1530 1532 1533 1534 1536 1537
1508 1508 1508 1507 1507 1507 1506 1506 1506 1506 1505 1505 1506 1506 1506 1506 1507 1507 1508 1509 1509 1510 1511 1511 1512 1512 1513 1514 1515 1516 1517 1519 1520 1521 1522 1523 1524 1525 1527 1528 1530 1531 1533
1504 1504 1503 1503 1502 1502 1502 1501 1501 1501 1500 1500 1500 1501 1501 1501 1502 1502 1503 1504 1505 1505 1506 1506 1507 1507 1508 1509 1510 1511 1512 1514 1515 1516 1517 1518 1519 1520 1522 1523 1525 1526 1528
1501 1500 1499 1498 1498 1497 1497 1496 1496 1496 1496 1495 1495 1495 1495 1496 1496 1497 1498 1499 1499 1500 1501 1501 1502 1502 1503 1504 1505 1506 1507 1508 1509 1510 1511 1512 1514 1516 1517 1519 1520 1522 1523
1497 1496 1495 1494 1493 1493 1492 1491 1491 1490 1490 1490 1490 1490 1490 1491 1491 1492 1493 1493 1494 1495 1495 1496 1497 1497 1498 1499 1500 1501 1502 1503 1504 1505 1506 1508 1509 1510 1512 1513 1514 1516 1517
1493 1492 1491 1490 1489 1488 1487 1486 1485 1485 1485 1485 1484 1485 1485 1485 1485 1486 1487 1488 1489 1490 1490 1491 1491 1492 1492 1493 1494 1495 1496 1497 1498 1499 1501 1502 1503 1505 1506 1508 1509 1510 1511
1489 1488 1487 1486 1484 1483 1482 1481 1480 1480 1479 1479 1479 1479 1478 1479 1480 1481 1482 1483 1484 1485 1486 1485 1486 1486 1487 1488 1489 1490 1491 1491 1492 1493 1494 1496 1497 1498 1500 1502 1503 1504 1506
1484 1483 1482 1481 1479 1478 1477 1476 1475 1474 1473 1472 1472 1472 1473 1473 1474 1475 1476 1477 1478 1479 1479 1480 1480 1481 1482 1483 1483 1484 1485 1486 1487 1487 1488 1489 1491 1492 1494 1495 1497 1498 1500
1480 1478 1477 1476 1474 1473 1472 1471 1470 1469 1468 1467 1467 1467 1467 1467 1468 1469 1470 1471 1471 1472 1473 1473 1474 1475 1476 1477 1478 1478 1479 1480 1481 1481 1482 1483 1484 1486 1487 1489 1491 1492 1494
1475 1473 1472 1471 1469 1468 1467 1466 1465 1464 1463 1462 1462 1462 1462 1462 1462 1463 1464 1464 1465 1465 1466 1467 1468 1469 1470 1471 1472 1472 1473 1474 1475 1476 1476 1477 1478 1480 1481 1483 1484 1486 1488
1469 1468 1467 1465 1464 1462 1461 1460 1459 1459 1458 1457 1457 1456 1456 1457 1456 1457 1457 1458 1459 1460 1460 1461 1462 1463 1464 1465 1465 1466 1467 1468 1469 1470 1471 1471 1472 1473 1475 1476 1478 1479 1481
1465 1463 1461 1460 1458 1457 1456 1455 1454 1453 1452 1451 1451 1451 1451 1451 1451 1451 1452 1452 1453 1454 1454 1455 1456 1457 1458 1458 1459 1460 1461 1462 1463 1464 1465 1465 1466 1467 1469 1470 1471 1473 1474
1460 1458 1456 1454 1453 1451 1450 1449 1448 1447 1446 1445 1445 1445 1445 1445 1445 1446 1446 1446 1447 1448 1448 1449 1449 1450 1451 1452 1453 1454 1455 1456 1457 1458 1459 1459 1460 1461 1463 1464 1465 1466 1468
1455 1453 1451 1449 1447 1445 1444 1443 1442 1441 1440 1439 1439 1439 1438 1438 1439 1439 1439 1440 1440 1441 1442 1442 1443 1443 1444 1445 1446 1447 1448 1449 1451 1452 1453 1453 1454 1455 1456 1458 1459 1460 1461
1449 1447 1445 1443 1442 1440 1438 1437 1436 1435 1434 1433 1433 1432 1432 1432 1432 1432 1433 1433 1434 1435 1435 1436 1436 1437 1438 1439 1440 1441 1442 1443 1444 1446 1446 1447 1448 1449 1450 1451 1452 1453 1454
1444 1442 1440 1438 1437 1435 1433 1432 1430 1429 1428 1427 1427 1426 1426 1426 1425 1426 1426 1427 1427 1428 1428 1429 1429 1430 1431 1432 1433 1434 1435 1436 1438 1439 1440 1441 1442 1443 1444 1445 1445 1447 1448
1439 1437 1435 1433 1432 1430 1428 1426 1425 1423 1422 1421 1421 1420 1419 1419 1419 1419 1420 1420 1420 1421 1421 1422 1422 1423 1424 1425 1426 1427 1428 1430 1431 1432 1433 1434 1435 1436 1437 1438 1439 1440 1441